When you browse on this site, cookies collect data to enhance your experience and personalize the content and advertising you see.
Visit our Privacy Policy to learn more. By continuing to use the site, you agree to this use of cookies and data.
  • în România
  • Lista ţărilor
  • Pe 7 zile
  • Temperatura apei
  • Hartă satelitară
  • Meteo pe hartă
  • Widget-uri
  • user-avatar
    Intrare

    Meteo pe oră la Kranston

    Astăzi, 20 Mai, Luni

    Timp Temperatura Precipitaţii Vânt Presiune Umiditate
    00:00 +19°C° 0 mm 5 m/s 758 mmHg 91%
    01:00 +19°C° 0 mm 5 m/s 758 mmHg 92%
    02:00 +17°C° 0.3 mm 5 m/s 758 mmHg 93%
    03:00 +17°C° 0.3 mm 5 m/s 758 mmHg 95%
    04:00 +17°C° 0.3 mm 5 m/s 757 mmHg 96%
    05:00 +17°C° 0 mm 5 m/s 757 mmHg 94%
    06:00 +19°C° 0 mm 5 m/s 757 mmHg 93%
    07:00 +19°C° 0 mm 5 m/s 756 mmHg 91%
    08:00 +22°C° 0 mm 5 m/s 756 mmHg 81%
    09:00 +25°C° 0 mm 5 m/s 755 mmHg 71%
    10:00 +27°C° 0 mm 5 m/s 755 mmHg 61%
    11:00 +28°C° 0 mm 5 m/s 755 mmHg 56%
    12:00 +29°C° 0 mm 6 m/s 754 mmHg 52%
    13:00 +32°C° 0 mm 7 m/s 754 mmHg 47%
    14:00 +30°C° 0 mm 6 m/s 753 mmHg 48%
    15:00 +29°C° 0 mm 6 m/s 753 mmHg 49%
    16:00 +29°C° 0 mm 6 m/s 753 mmHg 51%
    17:00 +27°C° 0.1 mm 5 m/s 753 mmHg 58%
    18:00 +25°C° 0.1 mm 4 m/s 753 mmHg 66%
    19:00 +22°C° 0.1 mm 3 m/s 753 mmHg 74%
    20:00 +21°C° 0.1 mm 3 m/s 753 mmHg 77%
    21:00 +20°C° 0.1 mm 3 m/s 754 mmHg 81%
    22:00 +18°C° 0.1 mm 3 m/s 754 mmHg 84%
    23:00 +17°C° 0 mm 3 m/s 754 mmHg 83%

    Mâine, 21 Mai, Marţi

    Timp Temperatura Precipitaţii Vânt Presiune Umiditate
    00:00 +16°C° 0 mm 3 m/s 754 mmHg 81%
    01:00 +14°C° 0 mm 3 m/s 754 mmHg 79%
    02:00 +13°C° 0 mm 3 m/s 754 mmHg 78%
    03:00 +12°C° 0 mm 3 m/s 754 mmHg 76%
    04:00 +11°C° 0 mm 3 m/s 754 mmHg 75%
    05:00 +12°C° 0 mm 4 m/s 755 mmHg 70%
    06:00 +13°C° 0 mm 5 m/s 755 mmHg 65%
    07:00 +14°C° 0 mm 5 m/s 755 mmHg 60%
    08:00 +15°C° 0 mm 5 m/s 755 mmHg 54%
    09:00 +17°C° 0 mm 6 m/s 755 mmHg 47%
    10:00 +19°C° 0 mm 6 m/s 755 mmHg 41%
    11:00 +20°C° 0 mm 6 m/s 755 mmHg 38%
    12:00 +21°C° 0 mm 6 m/s 755 mmHg 34%
    13:00 +22°C° 0 mm 6 m/s 755 mmHg 31%
    14:00 +21°C° 0 mm 6 m/s 755 mmHg 32%
    15:00 +21°C° 0 mm 6 m/s 755 mmHg 32%
    16:00 +21°C° 0 mm 7 m/s 756 mmHg 33%
    17:00 +19°C° 0 mm 5 m/s 756 mmHg 38%
    18:00 +17°C° 0 mm 4 m/s 757 mmHg 44%
    19:00 +16°C° 0 mm 3 m/s 758 mmHg 50%
    20:00 +14°C° 0 mm 3 m/s 758 mmHg 52%
    21:00 +13°C° 0 mm 3 m/s 759 mmHg 53%
    22:00 +12°C° 0 mm 3 m/s 759 mmHg 55%
    23:00 +12°C° 0 mm 3 m/s 759 mmHg 55%

    Poimâine, 22 Mai, Miercuri

    Timp Temperatura Precipitaţii Vânt Presiune Umiditate
    00:00 +12°C° 0 mm 4 m/s 759 mmHg 56%
    01:00 +11°C° 0 mm 4 m/s 759 mmHg 56%
    02:00 +11°C° 0 mm 4 m/s 760 mmHg 57%
    03:00 +10°C° 0 mm 5 m/s 760 mmHg 57%
    04:00 +10°C° 0 mm 5 m/s 760 mmHg 58%
    05:00 +10°C° 0 mm 5 m/s 761 mmHg 55%
    06:00 +12°C° 0 mm 5 m/s 762 mmHg 53%
    07:00 +13°C° 0 mm 5 m/s 762 mmHg 50%
    08:00 +15°C° 0 mm 5 m/s 763 mmHg 46%
    09:00 +16°C° 0 mm 5 m/s 763 mmHg 41%
    10:00 +19°C° 0 mm 5 m/s 763 mmHg 37%
    11:00 +20°C° 0 mm 4 m/s 763 mmHg 35%
    12:00 +21°C° 0 mm 4 m/s 764 mmHg 33%
    13:00 +22°C° 0 mm 4 m/s 764 mmHg 30%
    14:00 +22°C° 0 mm 3 m/s 764 mmHg 32%
    15:00 +22°C° 0 mm 3 m/s 764 mmHg 33%
    16:00 +23°C° 0 mm 2 m/s 764 mmHg 35%
    17:00 +20°C° 0 mm 3 m/s 764 mmHg 44%
    18:00 +17°C° 0 mm 3 m/s 765 mmHg 53%
    19:00 +13°C° 0 mm 3 m/s 765 mmHg 62%
    20:00 +13°C° 0 mm 2 m/s 766 mmHg 65%
    21:00 +12°C° 0 mm 2 m/s 766 mmHg 68%
    22:00 +11°C° 0 mm 1 m/s 767 mmHg 71%
    23:00 +11°C° 0 mm 1 m/s 767 mmHg 72%

    23 Mai, Joi

    Timp Temperatura Precipitaţii Vânt Presiune Umiditate
    00:00 +11°C° 0 mm 1 m/s 767 mmHg 73%
    01:00 +11°C° 0 mm 1 m/s 767 mmHg 73%
    02:00 +11°C° 0 mm 1 m/s 767 mmHg 73%
    03:00 +11°C° 0 mm 1 m/s 767 mmHg 73%
    04:00 +11°C° 0 mm 1 m/s 766 mmHg 72%
    05:00 +12°C° 0 mm 2 m/s 767 mmHg 68%
    06:00 +14°C° 0 mm 2 m/s 767 mmHg 64%
    07:00 +15°C° 0 mm 2 m/s 767 mmHg 59%
    08:00 +16°C° 0 mm 3 m/s 767 mmHg 58%
    09:00 +17°C° 0 mm 3 m/s 767 mmHg 57%
    10:00 +18°C° 0 mm 3 m/s 767 mmHg 55%
    11:00 +19°C° 0 mm 4 m/s 766 mmHg 54%
    12:00 +20°C° 0 mm 4 m/s 765 mmHg 52%
    13:00 +21°C° 0 mm 4 m/s 764 mmHg 50%
    14:00 +21°C° 0 mm 5 m/s 764 mmHg 52%
    15:00 +21°C° 0 mm 5 m/s 763 mmHg 54%
    16:00 +20°C° 0 mm 5 m/s 763 mmHg 56%
    17:00 +18°C° 0.3 mm 4 m/s 762 mmHg 66%
    18:00 +15°C° 0.3 mm 4 m/s 762 mmHg 76%
    19:00 +14°C° 0.3 mm 4 m/s 762 mmHg 85%
    20:00 +13°C° 2 mm 4 m/s 761 mmHg 89%
    21:00 +13°C° 2 mm 4 m/s 761 mmHg 92%
    22:00 +13°C° 2 mm 4 m/s 760 mmHg 95%
    23:00 +13°C° 1 mm 4 m/s 759 mmHg 96%

    24 Mai, Vineri

    Timp Temperatura Precipitaţii Vânt Presiune Umiditate
    00:00 +14°C° 1 mm 4 m/s 758 mmHg 96%
    01:00 +14°C° 1 mm 4 m/s 757 mmHg 96%
    02:00 +14°C° 1.6 mm 3 m/s 757 mmHg 97%
    03:00 +15°C° 1.6 mm 2 m/s 756 mmHg 97%
    04:00 +14°C° 1.6 mm 0 m/s 756 mmHg 98%
    05:00 +15°C° 0 mm 1 m/s 756 mmHg 97%
    06:00 +16°C° 0 mm 2 m/s 757 mmHg 96%
    07:00 +16°C° 0 mm 2 m/s 757 mmHg 95%
    08:00 +14°C° 0.1 mm 3 m/s 758 mmHg 94%
    09:00 +14°C° 0.1 mm 3 m/s 759 mmHg 93%
    10:00 +13°C° 0.1 mm 4 m/s 760 mmHg 93%
    11:00 +12°C° 0.2 mm 4 m/s 760 mmHg 93%
    12:00 +12°C° 0.2 mm 4 m/s 761 mmHg 93%
    13:00 +11°C° 0.2 mm 4 m/s 762 mmHg 93%
    14:00 +12°C° 0.1 mm 4 m/s 763 mmHg 90%
    15:00 +13°C° 0.1 mm 4 m/s 763 mmHg 86%
    16:00 +13°C° 0.1 mm 4 m/s 764 mmHg 83%
    17:00 +12°C° 0 mm 3 m/s 764 mmHg 83%
    18:00 +12°C° 0 mm 3 m/s 765 mmHg 83%
    19:00 +12°C° 0 mm 2 m/s 765 mmHg 83%
    20:00 +10°C° 0 mm 2 m/s 766 mmHg 87%
    21:00 +9°C° 0 mm 2 m/s 766 mmHg 90%
    22:00 +9°C° 0 mm 1 m/s 766 mmHg 93%
    23:00 +9°C° 0 mm 1 m/s 766 mmHg 94%

    25 Mai, Sâmbătă

    Timp Temperatura Precipitaţii Vânt Presiune Umiditate
    00:00 +8°C° 0 mm 1 m/s 766 mmHg 94%
    01:00 +8°C° 0 mm 1 m/s 766 mmHg 95%
    02:00 +8°C° 0 mm 1 m/s 766 mmHg 95%
    03:00 +8°C° 0 mm 1 m/s 766 mmHg 95%
    04:00 +7°C° 0 mm 1 m/s 766 mmHg 95%
    05:00 +9°C° 0 mm 1 m/s 766 mmHg 86%
    06:00 +11°C° 0 mm 1 m/s 766 mmHg 77%
    07:00 +13°C° 0 mm 1 m/s 767 mmHg 68%
    08:00 +15°C° 0 mm 2 m/s 766 mmHg 61%
    09:00 +17°C° 0 mm 2 m/s 766 mmHg 54%
    10:00 +19°C° 0 mm 3 m/s 766 mmHg 47%
    11:00 +19°C° 0 mm 3 m/s 765 mmHg 47%
    12:00 +20°C° 0 mm 4 m/s 765 mmHg 48%
    13:00 +20°C° 0 mm 4 m/s 765 mmHg 48%
    14:00 +20°C° 0 mm 4 m/s 764 mmHg 53%
    15:00 +19°C° 0 mm 5 m/s 763 mmHg 57%
    16:00 +19°C° 0 mm 5 m/s 763 mmHg 62%
    17:00 +17°C° 0 mm 5 m/s 762 mmHg 69%
    18:00 +17°C° 0 mm 4 m/s 762 mmHg 75%
    19:00 +14°C° 0 mm 4 m/s 762 mmHg 82%
    20:00 +14°C° 0 mm 4 m/s 762 mmHg 84%
    21:00 +14°C° 0 mm 4 m/s 761 mmHg 86%
    22:00 +14°C° 0 mm 4 m/s 761 mmHg 88%
    23:00 +14°C° 1.4 mm 4 m/s 761 mmHg 90%
    Arată mai mult